Tracking 19574 objects as of 16-Feb-2019
HD Live streaming from Space Station
objects crossing your sky now

GLOBALSTAR M024

Track GLOBALSTAR M024 now!
10-day predictions
GLOBALSTAR M024 is classified as:


NORAD ID: 25883
Int'l Code: 1999-043A
Perigee: 2,116.8 km
Apogee: 2,117.6 km
Inclination: 52.0 °
Period: 129.7 minutes
Semi major axis: 8488 km
RCS: 2.6378 m2 (large)
Launch date: August 17, 1999
Source: Globalstar (GLOB)
Launch site: AIR FORCE EASTERN TEST RANGE (AFETR)
aabbcc
Your satellite tracking list
Your tracking list is empty




NASA's NSSDC Master Catalog

Two Line Element Set (TLE):
1 25883U 99043A   19046.79154182 -.00000017 +00000-0 +16975-2 0  9997
2 25883 051.9993 200.2810 0000497 210.8936 289.3296 11.10140569857946
Source of the keplerian elements: AFSPC